FW5931 Weather Reports


time (UTC)temp
F
wind
direction
speed
knots
gust
knots
rain 1hr
in
rain 24hr
in
rain mn
in
humidity
%
barometer
mb
20260504042020 45 234 0.0 0.0 0.00 0.00 0.00 87 1018.1
20260504041948 45 234 0.0 0.0 0.00 0.00 0.00 86 1018.0
20260504041939 45 234 0.0 0.0 0.00 0.00 0.00 87 1018.0
20260504041720 46 234 0.0 0.0 0.00 0.00 0.00 86 1018.1
20260504041619 46 234 0.0 0.0 0.00 0.00 0.00 86 1018.1
20260504041520 46 234 0.0 0.0 0.00 0.00 0.00 86 1018.1
20260504041411 46 234 0.0 0.0 0.00 0.00 0.00 86 1018.0
20260504041354 46 234 0.0 0.0 0.00 0.00 0.00 86 1018.3
20260504041348 46 234 0.0 0.0 0.00 0.00 0.00 86 1018.1
20260504041334 46 234 0.0 0.0 0.00 0.00 0.00 86 1018.1
20260504041211 46 234 0.0 0.0 0.00 0.00 0.00 86 1018.1
20260504041204 46 234 0.0 0.0 0.00 0.00 0.00 85 1018.2
20260504041146 46 234 0.0 0.0 0.00 0.00 0.00 86 1018.1
20260504041025 46 234 0.0 0.0 0.00 0.00 0.00 86 1018.1
20260504040858 46 234 0.0 0.0 0.00 0.00 0.00 86 1018.2
20260504040842 46 234 0.0 0.0 0.00 0.00 0.00 86 1018.1
20260504040725 46 234 0.0 0.0 0.00 0.00 0.00 86 1018.2
20260504040713 46 234 0.0 0.0 0.00 0.00 0.00 86 1018.1
20260504040654 46 234 0.0 0.0 0.00 0.00 0.00 86 1018.2
20260504040532 46 234 0.0 0.0 0.00 0.00 0.00 86 1018.2
20260504040512 46 234 0.0 0.0 0.00 0.00 0.00 86 1018.2
20260504035847 47 234 0.0 0.0 0.00 0.00 0.00 86 1018.2
20260504035746 47 234 0.0 0.0 0.00 0.00 0.00 85 1018.2
20260504035644 47 234 0.0 0.0 0.00 0.00 0.00 85 1018.3
20260504035546 47 234 0.0 0.0 0.00 0.00 0.00 85 1018.3
20260504035445 47 235 0.0 0.0 0.00 0.00 0.00 85 1018.3
20260504035341 47 235 0.0 0.0 0.00 0.00 0.00 85 1018.3
20260504035240 47 236 0.0 0.0 0.00 0.00 0.00 85 1018.3
20260504035140 47 238 0.0 0.0 0.00 0.00 0.00 85 1018.3
20260504035041 47 243 0.0 0.0 0.00 0.00 0.00 85 1018.3
20260504035034 47 246 0.0 0.0 0.00 0.00 0.00 84 1018.3
20260504035017 47 246 0.0 0.0 0.00 0.00 0.00 85 1018.4
20260504034856 47 246 0.0 0.0 0.00 0.00 0.00 84 1018.3
20260504034837 47 246 0.0 0.0 0.00 0.00 0.00 84 1018.4
20260504034726 47 246 0.0 0.0 0.00 0.00 0.00 84 1018.3
20260504034709 47 246 0.0 0.0 0.00 0.00 0.00 84 1018.3
20260504034330 47 246 0.0 0.0 0.00 0.00 0.00 84 1018.3
20260504034256 47 246 0.0 0.0 0.00 0.00 0.00 84 1018.4
20260504034247 47 246 0.0 0.0 0.00 0.00 0.00 84 1018.3
20260504034026 47 246 0.0 0.0 0.00 0.00 0.00 83 1018.4
20260504033925 47 246 0.0 0.0 0.00 0.00 0.00 83 1018.4
20260504033825 47 246 0.0 0.0 0.00 0.00 0.00 83 1018.4
20260504033753 47 246 0.0 0.0 0.00 0.00 0.00 83 1018.3
20260504033744 47 246 0.0 0.0 0.00 0.00 0.00 83 1018.3
20260504033554 47 246 0.0 0.0 0.00 0.00 0.00 82 1018.3
20260504033545 47 246 0.0 0.0 0.00 0.00 0.00 82 1018.3
20260504033325 47 246 0.0 0.0 0.00 0.00 0.00 82 1018.3
20260504033225 47 246 0.0 0.0 0.00 0.00 0.00 82 1018.3
20260504033123 47 246 0.0 0.0 0.00 0.00 0.00 82 1018.3
20260504033024 47 246 0.0 0.0 0.00 0.00 0.00 82 1018.4
20260504032955 47 246 0.0 0.0 0.00 0.00 0.00 83 1018.4
20260504032945 47 247 0.0 0.0 0.00 0.00 0.00 83 1018.4
20260504032724 47 246 0.0 0.0 0.00 0.00 0.00 83 1018.3
20260504032620 47 246 0.0 0.0 0.00 0.00 0.00 83 1018.4
20260504032521 47 247 0.0 0.0 0.00 0.00 0.00 83 1018.4
20260504032514 48 246 0.0 0.0 0.00 0.00 0.00 83 1018.4
20260504032509 47 247 0.0 0.0 0.00 0.00 0.00 83 1018.4
20260504032451 47 247 0.0 0.0 0.00 0.00 0.00 83 1018.4
20260504032317 47 247 0.0 0.0 0.00 0.00 0.00 83 1018.4
20260504032204 48 246 0.0 0.0 0.00 0.00 0.00 83 1018.4
20260504032148 48 246 0.0 0.0 0.00 0.00 0.00 83 1018.4
20260504031811 48 247 0.0 0.0 0.00 0.00 0.00 83 1018.5
20260504031712 48 246 0.0 0.0 0.00 0.00 0.00 83 1018.5
20260504031607 48 245 0.0 0.9 0.00 0.00 0.00 83 1018.5
20260504031506 48 246 0.0 0.9 0.00 0.00 0.00 83 1018.5
20260504031404 48 246 0.0 0.9 0.00 0.00 0.00 83 1018.5
20260504031305 48 246 0.0 1.7 0.00 0.00 0.00 83 1018.5
20260504031201 48 246 0.0 1.7 0.00 0.00 0.00 83 1018.5
20260504031102 48 246 0.0 1.7 0.00 0.00 0.00 83 1018.5
20260504031027 48 246 0.0 1.7 0.00 0.00 0.00 83 1018.5
20260504031018 48 246 0.0 1.7 0.00 0.00 0.00 83 1018.5
20260504030759 48 247 0.0 1.7 0.00 0.00 0.00 83 1018.6
20260504030658 49 246 0.0 1.7 0.00 0.00 0.00 83 1018.5
20260504030600 49 246 0.0 1.7 0.00 0.00 0.00 82 1018.6
20260504030458 49 246 0.0 1.7 0.00 0.00 0.00 82 1018.6
20260504030357 49 246 0.0 1.7 0.00 0.00 0.00 82 1018.6
20260504030258 49 245 0.0 0.9 0.00 0.00 0.00 82 1018.6
20260504030157 49 246 0.0 0.9 0.00 0.00 0.00 81 1018.6
20260504030058 49 246 0.0 0.9 0.00 0.00 0.00 81 1018.5
20260504030028 49 246 0.0 0.9 0.00 0.00 0.00 81 1018.5
20260504030019 49 246 0.0 0.9 0.00 0.00 0.00 81 1018.5
20260504025752 49 246 0.0 0.9 0.00 0.00 0.00 80 1018.5
20260504025654 49 247 0.0 0.9 0.00 0.00 0.00 80 1018.5
20260504025619 49 246 0.0 0.9 0.00 0.00 0.00 80 1018.4
20260504025611 49 246 0.0 0.9 0.00 0.00 0.00 80 1018.4
20260504025348 49 246 0.0 0.9 0.00 0.00 0.00 80 1018.5
20260504025315 50 247 0.0 0.9 0.00 0.00 0.00 80 1018.4
20260504025306 49 246 0.0 0.9 0.00 0.00 0.00 80 1018.4
20260504025045 50 246 0.0 0.9 0.00 0.00 0.00 80 1018.4
20260504025012 50 246 0.0 1.7 0.00 0.00 0.00 79 1018.4
20260504025004 50 246 0.0 1.7 0.00 0.00 0.00 79 1018.5
20260504024741 50 246 0.9 1.7 0.00 0.00 0.00 78 1018.4
20260504024639 50 246 0.9 1.7 0.00 0.00 0.00 78 1018.4
20260504024540 50 246 0.9 1.7 0.00 0.00 0.00 78 1018.3
20260504024438 50 246 0.9 1.7 0.00 0.00 0.00 78 1018.3
20260504024336 50 246 0.9 1.7 0.00 0.00 0.00 77 1018.4
20260504024234 50 246 0.9 1.7 0.00 0.00 0.00 77 1018.3
20260504024135 50 246 0.9 1.7 0.00 0.00 0.00 76 1018.2
20260504024036 50 246 0.9 1.7 0.00 0.00 0.00 76 1018.3
20260504023935 50 246 0.9 1.7 0.00 0.00 0.00 76 1018.3
20260504023835 50 246 0.9 1.7 0.00 0.00 0.00 77 1018.2
20260504023733 50 246 0.9 1.7 0.00 0.00 0.00 76 1018.2
20260504023633 50 246 0.9 2.6 0.00 0.00 0.00 76 1018.2
20260504023532 50 246 0.9 2.6 0.00 0.00 0.00 76 1018.1
20260504023452 50 245 0.9 2.6 0.00 0.00 0.00 76 1018.1
20260504023444 50 246 0.9 2.6 0.00 0.00 0.00 76 1018.1
20260504023223 50 246 0.9 2.6 0.00 0.00 0.00 76 1018.1
20260504023123 50 246 0.9 2.6 0.00 0.00 0.00 76 1018.1
20260504023024 50 246 0.9 2.6 0.00 0.00 0.00 76 1018.1
20260504022953 50 246 0.9 2.6 0.00 0.00 0.00 76 1018.1
20260504022943 50 246 0.9 2.6 0.00 0.00 0.00 76 1018.0
20260504022718 50 246 0.9 2.6 0.00 0.00 0.00 76 1018.0
20260504022617 50 249 0.9 1.7 0.00 0.00 0.00 76 1017.9
20260504022516 50 249 0.9 1.7 0.00 0.00 0.00 76 1018.0
20260504022413 50 248 0.0 1.7 0.00 0.00 0.00 77 1017.9
20260504022312 50 249 0.0 1.7 0.00 0.00 0.00 77 1017.9
20260504022249 50 250 0.0 1.7 0.00 0.00 0.00 75 1017.8
20260504022245 50 250 0.0 0.9 0.00 0.00 0.00 77 1017.9
20260504022231 50 250 0.0 1.7 0.00 0.00 0.00 77 1017.9
20260504022215 50 250 0.0 1.7 0.00 0.00 0.00 77 1017.9
20260504021941 50 250 0.0 1.7 0.00 0.00 0.00 78 1017.9
20260504021931 50 250 0.0 0.9 0.00 0.00 0.00 77 1017.8
20260504021805 50 250 0.0 1.7 0.00 0.00 0.00 75 1017.7
20260504021800 50 250 0.0 1.7 0.00 0.00 0.00 75 1017.7
20260504021743 50 250 0.0 1.7 0.00 0.00 0.00 77 1017.8
20260504021623 50 250 0.0 1.7 0.00 0.00 0.00 76 1017.8
20260504021604 50 250 0.0 1.7 0.00 0.00 0.00 76 1017.8
20260504021439 50 250 0.0 1.7 0.00 0.00 0.00 75 1017.7
20260504021301 50 250 0.0 1.7 0.00 0.00 0.00 75 1017.8
20260504021021 50 250 0.0 1.7 0.00 0.00 0.00 75 1017.8
20260504020801 50 250 0.0 1.7 0.00 0.00 0.00 75 1017.8
20260504020701 50 250 0.0 0.9 0.00 0.00 0.00 76 1017.7
20260504020600 50 250 0.0 0.0 0.00 0.00 0.00 76 1017.8
20260504020458 50 250 0.0 0.0 0.00 0.00 0.00 76 1017.7
20260504020400 50 249 0.0 0.0 0.00 0.00 0.00 76 1017.7
20260504020258 50 250 0.0 0.0 0.00 0.00 0.00 76 1017.8
20260504020155 50 250 0.0 0.0 0.00 0.00 0.00 76 1017.8
20260504020054 50 250 0.0 0.0 0.00 0.00 0.00 76 1017.7
20260504015954 50 250 0.0 0.0 0.00 0.00 0.00 76 1017.7
20260504015854 50 250 0.0 0.0 0.00 0.00 0.00 76 1017.6
20260504015754 50 251 0.0 0.0 0.00 0.00 0.00 77 1017.6
20260504015653 50 252 0.0 0.0 0.00 0.00 0.00 77 1017.6
20260504015553 50 249 0.0 0.0 0.00 0.00 0.00 76 1017.7
20260504015451 50 249 0.0 0.0 0.00 0.00 0.00 76 1017.6
20260504015350 50 250 0.0 0.0 0.00 0.00 0.00 76 1017.7
20260504015250 50 249 0.0 0.0 0.00 0.00 0.00 76 1017.7
20260504015148 50 250 0.0 0.0 0.00 0.00 0.00 76 1017.7
20260504015115 51 250 0.0 0.0 0.00 0.00 0.00 77 1017.7
20260504015105 50 250 0.0 0.0 0.00 0.00 0.00 77 1017.7
20260504014845 51 249 0.0 0.0 0.00 0.00 0.00 77 1017.7
20260504014744 51 249 0.0 0.0 0.00 0.00 0.00 77 1017.6
20260504014642 51 250 0.0 0.0 0.00 0.00 0.00 77 1017.7
20260504014543 51 250 0.0 0.0 0.00 0.00 0.00 77 1017.7
20260504014443 51 249 0.0 0.9 0.00 0.00 0.00 77 1017.7
20260504014342 51 250 0.0 0.9 0.00 0.00 0.00 77 1017.7
20260504014241 51 250 0.0 0.9 0.00 0.00 0.00 77 1017.7
20260504014140 51 250 0.0 0.9 0.00 0.00 0.00 77 1017.7
20260504014040 51 250 0.9 0.9 0.00 0.00 0.00 77 1017.7
20260504013938 51 250 0.9 0.9 0.00 0.00 0.00 77 1017.8
20260504013836 51 250 0.9 0.9 0.00 0.00 0.00 77 1017.7
20260504013734 51 250 0.9 0.9 0.00 0.00 0.00 77 1017.7
20260504013635 52 250 0.9 0.9 0.00 0.00 0.00 77 1017.7
20260504013533 52 250 0.9 0.9 0.00 0.00 0.00 77 1017.7
20260504013431 52 250 0.9 0.9 0.00 0.00 0.00 77 1017.7
20260504013330 52 250 0.9 0.9 0.00 0.00 0.00 76 1017.7
20260504013230 52 250 0.9 1.7 0.00 0.00 0.00 76 1017.7
20260504013127 52 250 0.9 1.7 0.00 0.00 0.00 76 1017.7
20260504013028 52 250 0.9 1.7 0.00 0.00 0.00 76 1017.6
20260504013001 52 250 0.9 1.7 0.00 0.00 0.00 75 1017.7
20260504012953 52 250 0.9 1.7 0.00 0.00 0.00 75 1017.7
20260504012726 53 250 0.9 1.7 0.00 0.00 0.00 74 1017.6
20260504012627 53 250 0.9 1.7 0.00 0.00 0.00 74 1017.7
20260504012527 53 250 0.9 1.7 0.00 0.00 0.00 74 1017.6
20260504012427 53 250 0.0 1.7 0.00 0.00 0.00 73 1017.6
20260504012322 53 250 0.0 1.7 0.00 0.00 0.00 72 1017.6
20260504012224 53 250 0.0 1.7 0.00 0.00 0.00 72 1017.5
20260504012123 53 250 0.0 1.7 0.00 0.00 0.00 71 1017.6
20260504012024 53 250 0.0 1.7 0.00 0.00 0.00 70 1017.5
20260504011922 53 250 0.0 0.0 0.00 0.00 0.00 70 1017.6
20260504011824 53 250 0.0 0.0 0.00 0.00 0.00 70 1017.5
20260504011752 53 250 0.0 0.0 0.00 0.00 0.00 69 1017.5
20260504011743 53 250 0.0 0.0 0.00 0.00 0.00 69 1017.5
20260504011524 53 250 0.0 0.0 0.00 0.00 0.00 69 1017.5
20260504011454 54 250 0.0 0.0 0.00 0.00 0.00 69 1017.3
20260504011441 54 250 0.0 0.0 0.00 0.00 0.00 69 1017.5
20260504011251 54 249 0.0 0.0 0.00 0.00 0.00 69 1017.5
20260504011242 54 250 0.0 0.0 0.00 0.00 0.00 69 1017.5
20260504011018 54 250 0.0 0.0 0.00 0.00 0.00 69 1017.3
20260504010917 54 250 0.0 0.9 0.00 0.00 0.00 68 1017.5
20260504010818 54 250 0.0 0.9 0.00 0.00 0.00 68 1017.5
20260504010744 55 250 0.0 0.9 0.00 0.00 0.00 66 1017.6
20260504010738 55 250 0.0 0.9 0.00 0.00 0.00 69 1017.6
20260504010734 55 250 0.0 0.9 0.00 0.00 0.00 68 1017.6
20260504010723 54 250 0.0 0.9 0.00 0.00 0.00 68 1017.5
20260504010702 55 250 0.0 0.9 0.00 0.00 0.00 68 1017.6
20260504010646 55 250 0.0 0.9 0.00 0.00 0.00 69 1017.6
20260504010257 55 250 0.0 0.9 0.00 0.00 0.00 66 1017.6
20260504010242 55 250 0.0 0.9 0.00 0.00 0.00 67 1017.6
20260504005910 55 250 0.0 0.9 0.00 0.00 0.00 65 1017.6
20260504005904 56 250 0.0 0.0 0.00 0.00 0.00 65 1017.7
20260504005859 56 250 0.0 0.0 0.00 0.00 0.00 64 1017.5
20260504005842 55 250 0.0 0.9 0.00 0.00 0.00 65 1017.6
20260504005504 56 250 0.0 0.0 0.00 0.00 0.00 64 1017.6
20260504005404 56 251 0.0 0.0 0.00 0.00 0.00 63 1017.5
20260504005304 56 250 0.0 0.9 0.00 0.00 0.00 63 1017.6
20260504005201 56 250 0.0 0.9 0.00 0.00 0.00 63 1017.5
20260504005100 56 251 0.0 0.9 0.00 0.00 0.00 63 1017.6
20260504004959 56 250 0.0 0.9 0.00 0.00 0.00 63 1017.6
20260504004858 57 250 0.0 0.9 0.00 0.00 0.00 63 1017.6
20260504004757 57 249 0.0 0.9 0.00 0.00 0.00 63 1017.5
20260504004655 57 250 0.0 0.9 0.00 0.00 0.00 63 1017.6
20260504004551 57 250 0.0 0.9 0.00 0.00 0.00 63 1017.6
20260504004448 57 252 0.0 0.9 0.00 0.00 0.00 63 1017.6
20260504004350 57 250 0.0 0.9 0.00 0.00 0.00 63 1017.6
20260504004305 58 254 0.0 0.9 0.00 0.00 0.00 57 1017.7
20260504004259 58 253 0.0 1.7 0.00 0.00 0.00 57 1017.6
20260504004249 58 252 0.0 0.9 0.00 0.00 0.00 63 1017.6
20260504004242 59 254 0.0 1.7 0.00 0.00 0.00 57 1017.7
20260504004220 58 252 0.0 0.9 0.00 0.00 0.00 62 1017.6
20260504004058 58 253 0.0 0.9 0.00 0.00 0.00 61 1017.7
20260504004038 58 254 0.0 0.9 0.00 0.00 0.00 61 1017.7
20260504003913 58 254 0.0 0.9 0.00 0.00 0.00 60 1017.7
20260504003749 58 254 0.0 0.9 0.00 0.00 0.00 60 1017.7
20260504003733 58 254 0.0 0.9 0.00 0.00 0.00 59 1017.7
20260504003234 59 254 0.0 1.7 0.00 0.00 0.00 57 1017.7
20260504003133 59 255 0.0 1.7 0.00 0.00 0.00 56 1017.7
20260504003029 59 255 0.0 1.7 0.00 0.00 0.00 56 1017.7
20260504002927 59 254 0.0 1.7 0.00 0.00 0.00 55 1017.7
20260504002828 59 254 0.0 1.7 0.00 0.00 0.00 55 1017.7
20260504002726 59 255 0.0 1.7 0.00 0.00 0.00 55 1017.8
20260504002627 59 254 0.0 1.7 0.00 0.00 0.00 55 1017.7
20260504002520 59 256 0.0 1.7 0.00 0.00 0.00 55 1017.8
20260504002421 60 256 0.0 0.9 0.00 0.00 0.00 55 1017.8
20260504002350 60 257 0.0 0.9 0.00 0.00 0.00 55 1017.9
20260504002340 60 256 0.0 0.9 0.00 0.00 0.00 55 1017.8
20260504002117 60 0 0.0 1.7 0.00 0.00 0.00 54 1017.9
20260504002013 60 0 0.0 1.7 0.00 0.00 0.00 54 1017.9
20260504001911 60 0 0.0 1.7 0.00 0.00 0.00 54 1017.9
20260504001812 60 0 0.0 1.7 0.00 0.00 0.00 55 1018.0
20260504001711 60 0 0.0 1.7 0.00 0.00 0.00 54 1017.9
20260504001636 61 0 0.9 1.7 0.00 0.00 0.00 54 1017.9
20260504001627 61 243 0.9 1.7 0.00 0.00 0.00 54 1017.9
20260504001408 61 243 0.9 1.7 0.00 0.00 0.00 54 1018.0
20260504001306 61 0 0.9 1.7 0.00 0.00 0.00 55 1017.9
20260504001241 61 0 0.9 1.7 0.00 0.00 0.00 53 1018.0
20260504001229 61 242 0.9 1.7 0.00 0.00 0.00 55 1018.0
20260504001004 61 0 0.9 1.7 0.00 0.00 0.00 53 1018.0
20260504000905 61 0 0.9 2.6 0.00 0.00 0.00 53 1017.9
20260504000806 61 243 0.9 2.6 0.00 0.00 0.00 53 1018.0
20260504000705 61 243 0.9 2.6 0.00 0.00 0.00 54 1018.0
20260504000614 62 0 0.9 6.1 0.00 0.00 0.00 53 1018.0
20260504000603 61 243 0.9 2.6 0.00 0.00 0.00 54 1018.0
20260504000557 62 242 0.9 6.1 0.00 0.00 0.00 54 1018.0
20260504000540 61 243 0.9 6.1 0.00 0.00 0.00 53 1018.0
20260504000230 62 242 1.7 6.1 0.00 0.00 0.00 53 1018.0
20260504000219 62 0 0.9 6.1 0.00 0.00 0.00 54 1018.0
20260503235958 62 242 1.7 6.1 0.00 0.00 0.00 53 1018.0
20260503235858 62 240 1.7 6.1 0.00 0.00 0.00 53 1018.0
20260503235800 62 240 1.7 6.1 0.00 0.00 0.00 52 1018.0
20260503235657 62 240 1.7 6.1 0.00 0.00 0.00 51 1017.9
20260503235556 62 0 1.7 6.1 0.00 0.00 0.00 51 1018.0
20260503235456 62 239 1.7 5.2 0.00 0.00 0.00 53 1018.0
20260503235357 62 241 1.7 4.3 0.00 0.00 0.00 53 1017.9
20260503235255 62 240 1.7 4.3 0.00 0.00 0.00 51 1017.9
20260503235224 62 240 1.7 5.2 0.00 0.00 0.00 51 1017.9
20260503235216 62 241 1.7 4.3 0.00 0.00 0.00 50 1018.0
20260503235025 63 217 1.7 5.2 0.00 0.00 0.00 51 1017.9
20260503235014 63 249 1.7 5.2 0.00 0.00 0.00 51 1017.9
20260503234752 63 217 1.7 5.2 0.00 0.00 0.00 51 1017.9
20260503234652 63 0 1.7 5.2 0.00 0.00 0.00 49 1017.9
20260503234550 63 200 1.7 5.2 0.00 0.00 0.00 50 1017.7
20260503234452 63 172 1.7 5.2 0.00 0.00 0.00 49 1017.7
20260503234422 63 157 1.7 5.2 0.00 0.00 0.00 50 1017.6
20260503234412 63 175 1.7 5.2 0.00 0.00 0.00 49 1017.7
20260503234151 63 184 1.7 5.2 0.00 0.00 0.00 49 1017.7
20260503234051 63 157 1.7 4.3 0.00 0.00 0.00 49 1017.7
20260503233951 63 209 1.7 4.3 0.00 0.00 0.00 50 1017.7
20260503233851 63 186 1.7 4.3 0.00 0.00 0.00 50 1017.7
20260503233750 63 196 0.9 4.3 0.00 0.00 0.00 49 1017.8
20260503233651 63 173 0.9 4.3 0.00 0.00 0.00 49 1017.7
20260503233546 63 175 1.7 4.3 0.00 0.00 0.00 47 1017.7
20260503233448 63 174 1.7 4.3 0.00 0.00 0.00 47 1017.7
20260503233418 64 173 1.7 4.3 0.00 0.00 0.00 49 1017.6
20260503233407 64 177 1.7 4.3 0.00 0.00 0.00 50 1017.7
20260503233145 64 237 1.7 5.2 0.00 0.00 0.00 48 1017.7
20260503233038 64 237 1.7 6.1 0.00 0.00 0.00 47 1017.7
20260503232938 64 237 1.7 6.1 0.00 0.00 0.00 48 1017.7
20260503232838 64 240 2.6 7.0 0.00 0.00 0.00 47 1017.7
20260503232738 64 238 2.6 7.8 0.00 0.00 0.00 47 1017.7
20260503232639 64 238 2.6 7.8 0.00 0.00 0.00 47 1017.7
20260503232536 64 225 2.6 7.8 0.00 0.00 0.00 47 1017.7
20260503232435 64 229 2.6 7.8 0.00 0.00 0.00 46 1017.8
20260503232403 64 244 2.6 7.8 0.00 0.00 0.00 46 1017.8
20260503232354 64 262 2.6 7.8 0.00 0.00 0.00 46 1017.8
20260503232134 64 253 2.6 7.8 0.00 0.00 0.00 45 1017.8
20260503232034 64 248 2.6 7.8 0.00 0.00 0.00 45 1017.9
20260503232005 65 251 2.6 7.0 0.00 0.00 0.00 46 1017.9
20260503231956 65 251 2.6 7.8 0.00 0.00 0.00 46 1017.8
20260503231735 65 183 2.6 7.8 0.00 0.00 0.00 46 1018.0
20260503231633 65 233 2.6 9.6 0.00 0.00 0.00 47 1018.0
20260503231533 65 236 2.6 9.6 0.00 0.00 0.00 47 1018.0
20260503231430 65 253 2.6 9.6 0.00 0.00 0.00 47 1018.1
20260503231356 65 266 2.6 9.6 0.00 0.00 0.00 45 1018.0
20260503231348 65 265 2.6 9.6 0.00 0.00 0.00 45 1018.0
20260503231128 65 261 2.6 9.6 0.00 0.00 0.00 46 1018.0
20260503231028 65 240 2.6 9.6 0.00 0.00 0.00 45 1018.0
20260503230929 65 245 2.6 9.6 0.00 0.00 0.00 47 1018.0
20260503230824 65 240 2.6 9.6 0.00 0.00 0.00 47 1018.2
20260503230748 65 245 2.6 7.8 0.00 0.00 0.00 46 1018.1
20260503230741 65 284 2.6 7.8 0.00 0.00 0.00 48 1018.1
20260503230520 65 207 2.6 7.8 0.00 0.00 0.00 46 1018.1
20260503230421 65 210 2.6 7.8 0.00 0.00 0.00 47 1018.2
20260503230320 65 259 3.5 7.8 0.00 0.00 0.00 46 1018.2
20260503230250 65 275 3.5 8.7 0.00 0.00 0.00 48 1018.2
20260503230240 65 254 3.5 8.7 0.00 0.00 0.00 46 1018.2
20260503230020 65 223 3.5 8.7 0.00 0.00 0.00 50 1018.3
20260503225921 65 259 3.5 8.7 0.00 0.00 0.00 48 1018.3
20260503225820 65 277 3.5 8.7 0.00 0.00 0.00 47 1018.2
20260503225721 65 239 4.3 8.7 0.00 0.00 0.00 46 1018.3
20260503225620 65 244 4.3 8.7 0.00 0.00 0.00 46 1018.2
20260503225521 65 274 4.3 8.7 0.00 0.00 0.00 44 1018.2
20260503225422 65 240 4.3 8.7 0.00 0.00 0.00 45 1018.3
20260503225320 65 254 3.5 8.7 0.00 0.00 0.00 45 1018.3
20260503225221 65 246 3.5 8.7 0.00 0.00 0.00 44 1018.4
20260503225115 65 250 3.5 8.7 0.00 0.00 0.00 48 1018.3
20260503225014 65 244 3.5 7.8 0.00 0.00 0.00 48 1018.3
20260503224912 65 228 3.5 7.8 0.00 0.00 0.00 50 1018.3
20260503224813 65 244 3.5 7.8 0.00 0.00 0.00 43 1018.3
20260503224714 65 267 3.5 7.8 0.00 0.00 0.00 43 1018.3
20260503224606 65 259 2.6 7.0 0.00 0.00 0.00 46 1018.4
20260503224537 65 220 2.6 6.1 0.00 0.00 0.00 46 1018.4
20260503224528 65 247 2.6 7.0 0.00 0.00 0.00 48 1018.4
20260503224306 65 253 3.5 9.6 0.00 0.00 0.00 46 1018.4
20260503224207 65 236 3.5 9.6 0.00 0.00 0.00 46 1018.4
20260503224107 65 236 3.5 9.6 0.00 0.00 0.00 45 1018.4
20260503224036 65 233 3.5 9.6 0.00 0.00 0.00 46 1018.4
20260503224029 65 263 3.5 9.6 0.00 0.00 0.00 44 1018.5
20260503223806 65 244 3.5 9.6 0.00 0.00 0.00 46 1018.5
20260503223704 65 205 3.5 9.6 0.00 0.00 0.00 49 1018.5
20260503223644 65 248 2.6 9.6 0.00 0.00 0.00 45 1018.4
20260503223639 65 240 2.6 8.7 0.00 0.00 0.00 47 1018.5
20260503223634 65 261 1.7 8.7 0.00 0.00 0.00 45 1018.4
20260503223620 65 215 3.5 9.6 0.00 0.00 0.00 47 1018.5
20260503223602 65 239 3.5 9.6 0.00 0.00 0.00 45 1018.5
20260503223104 66 205 1.7 7.8 0.00 0.00 0.00 45 1018.4
20260503223004 66 158 1.7 7.0 0.00 0.00 0.00 46 1018.3
20260503222905 66 148 1.7 6.1 0.00 0.00 0.00 46 1018.4
20260503222804 66 218 1.7 6.1 0.00 0.00 0.00 51 1018.4
20260503222704 66 167 2.6 7.0 0.00 0.00 0.00 49 1018.5
20260503222604 66 191 2.6 7.8 0.00 0.00 0.00 49 1018.4
20260503222504 66 218 2.6 7.8 0.00 0.00 0.00 48 1018.4
20260503222402 66 137 2.6 7.8 0.00 0.00 0.00 48 1018.4
20260503222329 65 154 3.5 7.8 0.00 0.00 0.00 48 1018.4
20260503222320 65 154 2.6 7.8 0.00 0.00 0.00 51 1018.4
20260503222100 65 221 3.5 7.8 0.00 0.00 0.00 46 1018.4
20260503221957 66 147 3.5 7.8 0.00 0.00 0.00 48 1018.4
20260503221858 66 163 2.6 7.8 0.00 0.00 0.00 47 1018.5
20260503221758 66 207 2.6 7.8 0.00 0.00 0.00 49 1018.5
20260503221659 66 210 2.6 7.8 0.00 0.00 0.00 46 1018.4
20260503221557 66 282 2.6 7.8 0.00 0.00 0.00 45 1018.5
20260503221458 66 263 2.6 7.8 0.00 0.00 0.00 47 1018.6
20260503221358 66 248 2.6 7.8 0.00 0.00 0.00 48 1018.5
20260503221259 66 246 2.6 7.8 0.00 0.00 0.00 45 1018.6
20260503221158 66 275 2.6 7.8 0.00 0.00 0.00 46 1018.6
20260503221134 66 290 2.6 7.8 0.00 0.00 0.00 48 1018.6
20260503221118 66 257 2.6 7.8 0.00 0.00 0.00 47 1018.5
20260503220859 66 261 2.6 7.8 0.00 0.00 0.00 49 1018.6
20260503220758 66 232 2.6 7.8 0.00 0.00 0.00 47 1018.6
20260503220659 66 232 2.6 7.8 0.00 0.00 0.00 43 1018.6
20260503220559 66 231 2.6 7.8 0.00 0.00 0.00 45 1018.6
20260503220459 66 240 2.6 7.8 0.00 0.00 0.00 47 1018.6
20260503220358 66 241 2.6 7.8 0.00 0.00 0.00 47 1018.5
20260503220257 66 209 2.6 7.8 0.00 0.00 0.00 45 1018.6
20260503220159 66 213 2.6 7.8 0.00 0.00 0.00 48 1018.6
20260503220059 66 262 2.6 7.8 0.00 0.00 0.00 48 1018.6
20260503215959 66 244 2.6 6.1 0.00 0.00 0.00 48 1018.6
20260503215929 66 246 1.7 6.1 0.00 0.00 0.00 45 1018.7
20260503215919 66 111 2.6 6.1 0.00 0.00 0.00 47 1018.6
20260503215659 66 213 2.6 5.2 0.00 0.00 0.00 45 1018.6
20260503215558 66 229 2.6 9.6 0.00 0.00 0.00 46 1018.6
20260503215457 66 202 3.5 11.3 0.00 0.00 0.00 44 1018.6
20260503215358 66 168 3.5 11.3 0.00 0.00 0.00 45 1018.7
20260503215330 66 186 4.3 11.3 0.00 0.00 0.00 45 1018.6
20260503215319 66 190 3.5 11.3 0.00 0.00 0.00 45 1018.6
20260503215058 66 196 4.3 11.3 0.00 0.00 0.00 46 1018.7
20260503215000 65 193 4.3 11.3 0.00 0.00 0.00 44 1018.7
20260503214854 65 192 4.3 11.3 0.00 0.00 0.00 46 1018.7
20260503214827 65 240 4.3 11.3 0.00 0.00 0.00 45 1018.7
20260503214817 65 215 4.3 11.3 0.00 0.00 0.00 46 1018.7
20260503214554 65 268 4.3 11.3 0.00 0.00 0.00 44 1018.8
20260503214454 65 275 3.5 10.4 0.00 0.00 0.00 43 1018.8
20260503214424 65 311 3.5 8.7 0.00 0.00 0.00 42 1018.8
20260503214414 65 290 3.5 8.7 0.00 0.00 0.00 42 1018.7
20260503214156 65 314 3.5 8.7 0.00 0.00 0.00 44 1018.8
20260503214054 65 252 3.5 7.8 0.00 0.00 0.00 45 1018.8
20260503214037 65 235 4.3 9.6 0.00 0.00 0.00 47 1018.9
20260503214032 65 239 4.3 10.4 0.00 0.00 0.00 43 1019.0
20260503214027 65 246 4.3 9.6 0.00 0.00 0.00 44 1018.8
20260503214014 65 248 3.5 9.6 0.00 0.00 0.00 43 1018.8
20260503213957 65 246 4.3 9.6 0.00 0.00 0.00 44 1018.8
20260503213718 65 303 4.3 9.6 0.00 0.00 0.00 43 1018.9
20260503213713 65 269 4.3 9.6 0.00 0.00 0.00 42 1018.9
20260503213707 65 252 4.3 10.4 0.00 0.00 0.00 44 1018.9
20260503213657 65 242 4.3 9.6 0.00 0.00 0.00 44 1018.8
20260503213637 65 270 4.3 9.6 0.00 0.00 0.00 45 1018.8
20260503213520 65 239 4.3 10.4 0.00 0.00 0.00 42 1018.9
20260503213514 65 252 4.3 10.4 0.00 0.00 0.00 43 1019.0
20260503213503 65 236 4.3 9.6 0.00 0.00 0.00 45 1018.9
20260503213444 65 271 4.3 9.6 0.00 0.00 0.00 45 1018.9
20260503213146 65 295 4.3 9.6 0.00 0.00 0.00 44 1018.9
20260503213009 65 302 4.3 9.6 0.00 0.00 0.00 44 1018.9
20260503212355 65 287 4.3 10.4 0.00 0.00 0.00 43 1018.9
20260503212300 65 240 4.3 10.4 0.00 0.00 0.00 49 1018.9
20260503212247 65 244 4.3 10.4 0.00 0.00 0.00 46 1018.9
20260503212242 65 253 4.3 10.4 0.00 0.00 0.00 43 1019.0
20260503212223 65 290 4.3 10.4 0.00 0.00 0.00 44 1019.0
20260503211924 65 255 5.2 10.4 0.00 0.00 0.00 44 1019.1
20260503211919 65 174 5.2 10.4 0.00 0.00 0.00 43 1019.1
20260503211908 65 245 4.3 10.4 0.00 0.00 0.00 44 1019.0
20260503211848 65 187 4.3 10.4 0.00 0.00 0.00 44 1019.0
20260503211723 65 198 4.3 10.4 0.00 0.00 0.00 44 1019.0
20260503211346 65 247 5.2 10.4 0.00 0.00 0.00 45 1019.1
20260503211317 65 259 6.1 10.4 0.00 0.00 0.00 42 1019.1
20260503211306 65 275 6.1 10.4 0.00 0.00 0.00 44 1019.1
20260503211046 65 266 6.1 10.4 0.00 0.00 0.00 42 1019.2
20260503210945 65 282 7.0 10.4 0.00 0.00 0.00 42 1019.2
20260503210916 65 304 7.0 10.4 0.00 0.00 0.00 43 1019.3
20260503210906 65 270 6.1 10.4 0.00 0.00 0.00 43 1019.3
20260503210714 65 246 6.1 10.4 0.00 0.00 0.00 42 1019.3
20260503210705 65 251 6.1 10.4 0.00 0.00 0.00 44 1019.3
20260503210444 65 244 5.2 10.4 0.00 0.00 0.00 44 1019.4
20260503210343 65 256 5.2 10.4 0.00 0.00 0.00 47 1019.4
20260503210243 65 238 5.2 10.4 0.00 0.00 0.00 44 1019.4
20260503210141 65 251 4.3 10.4 0.00 0.00 0.00 43 1019.4
20260503210056 65 241 3.5 8.7 0.00 0.00 0.00 43 1019.4
20260503210052 65 202 4.3 8.7 0.00 0.00 0.00 47 1019.4
20260503210041 65 292 4.3 10.4 0.00 0.00 0.00 42 1019.4
20260503210020 66 249 3.5 8.7 0.00 0.00 0.00 42 1019.4
20260503205858 66 294 3.5 8.7 0.00 0.00 0.00 44 1019.4
20260503205714 65 242 4.3 8.7 0.00 0.00 0.00 47 1019.4
20260503205354 65 229 3.5 8.7 0.00 0.00 0.00 42 1019.4
20260503205343 65 212 4.3 8.7 0.00 0.00 0.00 48 1019.5
20260503205121 65 247 3.5 8.7 0.00 0.00 0.00 40 1019.4
20260503205020 65 227 3.5 8.7 0.00 0.00 0.00 43 1019.5
20260503204949 65 227 2.6 8.7 0.00 0.00 0.00 41 1019.5
20260503204939 65 246 3.5 8.7 0.00 0.00 0.00 44 1019.5
20260503204746 65 186 2.6 8.7 0.00 0.00 0.00 44 1019.5
20260503204735 65 180 3.5 8.7 0.00 0.00 0.00 41 1019.5
20260503204544 66 213 3.5 8.7 0.00 0.00 0.00 43 1019.5
20260503204533 66 249 3.5 8.7 0.00 0.00 0.00 44 1019.5
20260503204307 66 271 4.3 12.2 0.00 0.00 0.00 44 1019.6
20260503204205 66 186 4.3 12.2 0.00 0.00 0.00 46 1019.5
20260503204107 66 210 5.2 12.2 0.00 0.00 0.00 47 1019.5
20260503204007 66 229 5.2 12.2 0.00 0.00 0.00 52 1019.6
20260503203907 65 191 6.1 12.2 0.00 0.00 0.00 44 1019.6
20260503203804 65 252 6.1 12.2 0.00 0.00 0.00 43 1019.6
20260503203704 65 279 6.1 12.2 0.00 0.00 0.00 42 1019.6
20260503203604 65 314 6.1 12.2 0.00 0.00 0.00 41 1019.6
20260503203504 65 299 5.2 12.2 0.00 0.00 0.00 43 1019.7
20260503203404 65 251 5.2 12.2 0.00 0.00 0.00 42 1019.7
20260503203337 65 252 4.3 10.4 0.00 0.00 0.00 42 1019.7
20260503203326 65 254 4.3 11.3 0.00 0.00 0.00 43 1019.7
20260503203104 65 262 3.5 10.4 0.00 0.00 0.00 43 1019.6
20260503203005 65 245 3.5 10.4 0.00 0.00 0.00 41 1019.7
20260503202905 65 235 3.5 7.8 0.00 0.00 0.00 42 1019.7
20260503202807 65 288 2.6 7.8 0.00 0.00 0.00 45 1019.7
20260503202800 65 162 2.6 6.1 0.00 0.00 0.00 50 1019.7
20260503202741 65 157 2.6 7.0 0.00 0.00 0.00 45 1019.7
20260503202618 65 232 2.6 6.1 0.00 0.00 0.00 49 1019.7
20260503202358 65 120 2.6 6.1 0.00 0.00 0.00 43 1019.7
20260503202256 65 180 2.6 7.0 0.00 0.00 0.00 43 1019.8
20260503202154 65 175 3.5 7.0 0.00 0.00 0.00 49 1019.7
20260503202052 65 184 3.5 7.8 0.00 0.00 0.00 48 1019.8
20260503201953 65 239 3.5 8.7 0.00 0.00 0.00 56 1019.8
20260503201853 65 227 4.3 9.6 0.00 0.00 0.00 47 1019.8
20260503201750 64 192 4.3 9.6 0.00 0.00 0.00 51 1019.7
20260503201649 64 192 4.3 9.6 0.00 0.00 0.00 46 1019.8
20260503201550 64 251 4.3 9.6 0.00 0.00 0.00 41 1019.8
20260503201503 64 309 4.3 9.6 0.00 0.00 0.00 42 1019.9
20260503201453 64 251 4.3 9.6 0.00 0.00 0.00 40 1019.9
20260503201447 64 278 4.3 9.6 0.00 0.00 0.00 45 1019.9
20260503201428 64 261 4.3 9.6 0.00 0.00 0.00 47 1019.9
20260503201026 64 275 4.3 11.3 0.00 0.00 0.00 44 1019.9
20260503201015 64 252 4.3 10.4 0.00 0.00 0.00 44 1019.9
20260503200750 64 261 4.3 11.3 0.00 0.00 0.00 44 1020.0
20260503200651 64 257 4.3 11.3 0.00 0.00 0.00 46 1020.1
20260503200550 64 242 4.3 11.3 0.00 0.00 0.00 41 1020.1
20260503200450 65 213 3.5 11.3 0.00 0.00 0.00 45 1020.1
20260503200414 65 241 3.5 11.3 0.00 0.00 0.00 45 1020.1
20260503200405 65 213 3.5 11.3 0.00 0.00 0.00 45 1020.1
20260503200143 65 250 3.5 11.3 0.00 0.00 0.00 50 1020.1
20260503195943 64 281 3.5 11.3 0.00 0.00 0.00 46 1020.2
20260503195838 64 242 2.6 8.7 0.00 0.00 0.00 41 1020.1
20260503195809 65 231 2.6 8.7 0.00 0.00 0.00 49 1020.2
20260503195800 65 272 2.6 8.7 0.00 0.00 0.00 45 1020.2
20260503195538 64 157 2.6 8.7 0.00 0.00 0.00 45 1020.3
20260503195438 64 194 2.6 8.7 0.00 0.00 0.00 43 1020.4
20260503195339 64 191 2.6 8.7 0.00 0.00 0.00 45 1020.3
20260503195249 64 268 3.5 8.7 0.00 0.00 0.00 43 1020.4
20260503195240 64 171 2.6 8.7 0.00 0.00 0.00 47 1020.3
20260503195219 64 132 2.6 8.7 0.00 0.00 0.00 45 1020.3
20260503195058 64 270 3.5 8.7 0.00 0.00 0.00 44 1020.3
20260503194837 64 15 4.3 10.4 0.00 0.00 0.00 42 1020.4
20260503194805 64 184 4.3 10.4 0.00 0.00 0.00 45 1020.4
20260503194755 64 355 4.3 10.4 0.00 0.00 0.00 46 1020.4
20260503194534 64 242 4.3 10.4 0.00 0.00 0.00 50 1020.7
20260503194435 64 297 4.3 10.4 0.00 0.00 0.00 52 1020.4
20260503194335 64 286 5.2 10.4 0.00 0.00 0.00 45 1020.6
20260503194234 64 313 5.2 10.4 0.00 0.00 0.00 44 1020.6
20260503194128 65 281 4.3 10.4 0.00 0.00 0.00 48 1020.7
20260503194028 64 275 4.3 10.4 0.00 0.00 0.00 48 1020.6
20260503193929 64 266 3.5 10.4 0.00 0.00 0.00 51 1020.7
20260503193904 64 222 3.5 8.7 0.00 0.00 0.00 44 1020.7
20260503193853 64 223 3.5 8.7 0.00 0.00 0.00 50 1020.7
20260503193656 64 195 2.6 7.0 0.00 0.00 0.00 49 1020.7
20260503193645 64 240 2.6 7.8 0.00 0.00 0.00 42 1020.7
20260503193624 64 254 2.6 7.8 0.00 0.00 0.00 44 1020.7
20260503193447 64 279 2.6 7.8 0.00 0.00 0.00 52 1020.7
20260503193419 64 236 2.6 7.8 0.00 0.00 0.00 52 1020.7
20260503193251 64 227 2.6 7.0 0.00 0.00 0.00 47 1020.7
20260503193011 64 215 3.5 7.0 0.00 0.00 0.00 44 1020.8
20260503192912 64 220 3.5 8.7 0.00 0.00 0.00 45 1020.9
20260503192811 64 242 3.5 8.7 0.00 0.00 0.00 43 1020.9
20260503192713 64 261 3.5 8.7 0.00 0.00 0.00 51 1020.9
20260503192606 64 247 3.5 9.6 0.00 0.00 0.00 45 1020.8
20260503192505 64 178 4.3 9.6 0.00 0.00 0.00 43 1020.8
20260503192407 65 229 4.3 9.6 0.00 0.00 0.00 44 1020.9
20260503192306 65 184 4.3 9.6 0.00 0.00 0.00 52 1020.9
20260503192206 64 239 4.3 9.6 0.00 0.00 0.00 54 1020.9
20260503192129 64 259 3.5 9.6 0.00 0.00 0.00 50 1021.0
20260503192118 64 221 3.5 9.6 0.00 0.00 0.00 47 1020.9
20260503191856 64 240 3.5 9.6 0.00 0.00 0.00 47 1020.9
20260503191755 64 221 3.5 9.6 0.00 0.00 0.00 49 1021.0
20260503191656 64 240 3.5 9.6 0.00 0.00 0.00 51 1021.0
20260503191621 64 242 2.6 8.7 0.00 0.00 0.00 45 1021.0
20260503191611 64 182 3.5 8.7 0.00 0.00 0.00 50 1021.0
20260503191421 63 113 2.6 7.8 0.00 0.00 0.00 46 1021.0
20260503191411 63 306 2.6 8.7 0.00 0.00 0.00 47 1021.0
20260503191150 63 260 2.6 7.8 0.00 0.00 0.00 46 1021.0
20260503191047 63 311 2.6 7.8 0.00 0.00 0.00 42 1021.1
20260503190945 63 206 2.6 7.8 0.00 0.00 0.00 48 1021.0
20260503190844 64 223 2.6 7.8 0.00 0.00 0.00 42 1021.1
20260503190819 64 221 2.6 7.8 0.00 0.00 0.00 47 1021.1
20260503190809 64 206 2.6 7.8 0.00 0.00 0.00 47 1021.2
20260503190536 64 241 2.6 7.8 0.00 0.00 0.00 48 1021.1
20260503190434 64 244 2.6 7.8 0.00 0.00 0.00 54 1021.2
20260503190403 63 211 3.5 9.6 0.00 0.00 0.00 49 1021.2
20260503190353 64 192 2.6 9.6 0.00 0.00 0.00 48 1021.2
20260503190134 63 9 3.5 9.6 0.00 0.00 0.00 55 1021.2
20260503190028 62 246 3.5 9.6 0.00 0.00 0.00 41 1021.2
20260503185927 62 242 4.3 9.6 0.00 0.00 0.00 45 1021.3
20260503185829 62 280 4.3 9.6 0.00 0.00 0.00 49 1021.2
20260503185728 62 281 5.2 10.4 0.00 0.00 0.00 45 1021.2
20260503185628 63 267 6.1 11.3 0.00 0.00 0.00 48 1021.3
20260503185524 63 236 6.1 11.3 0.00 0.00 0.00 45 1021.3
20260503185423 63 252 5.2 11.3 0.00 0.00 0.00 51 1021.3
20260503185323 63 221 5.2 11.3 0.00 0.00 0.00 51 1021.3
20260503185224 63 322 5.2 11.3 0.00 0.00 0.00 46 1021.3
20260503185122 63 262 4.3 11.3 0.00 0.00 0.00 49 1021.3
20260503185011 63 251 3.5 11.3 0.00 0.00 0.00 50 1021.3
20260503184913 63 246 3.5 11.3 0.00 0.00 0.00 47 1021.3
20260503184813 63 278 3.5 11.3 0.00 0.00 0.00 46 1021.3
20260503184712 64 246 2.6 11.3 0.00 0.00 0.00 46 1021.3
20260503184612 64 233 1.7 6.1 0.00 0.00 0.00 46 1021.3
20260503184509 63 242 2.6 5.2 0.00 0.00 0.00 43 1021.3
20260503184437 64 202 2.6 7.0 0.00 0.00 0.00 45 1021.3
20260503184427 64 211 2.6 6.1 0.00 0.00 0.00 46 1021.3
20260503184207 63 196 3.5 7.0 0.00 0.00 0.00 50 1021.3
20260503184107 63 199 3.5 7.0 0.00 0.00 0.00 50 1021.3
20260503183959 62 200 3.5 7.0 0.00 0.00 0.00 49 1021.4
20260503183900 62 264 3.5 7.0 0.00 0.00 0.00 42 1021.3
20260503183801 62 267 3.5 9.6 0.00 0.00 0.00 44 1021.3
20260503183701 62 252 4.3 9.6 0.00 0.00 0.00 46 1021.3
20260503183601 62 266 4.3 9.6 0.00 0.00 0.00 42 1021.3
20260503183552 63 267 3.5 9.6 0.00 0.00 0.00 49 1021.4
20260503183548 63 250 3.5 9.6 0.00 0.00 0.00 46 1021.4
20260503183528 63 265 4.3 9.6 0.00 0.00 0.00 49 1021.3
20260503183151 63 279 3.5 9.6 0.00 0.00 0.00 50 1021.4
20260503183050 63 250 2.6 9.6 0.00 0.00 0.00 51 1021.4
20260503182947 63 236 2.6 9.6 0.00 0.00 0.00 46 1021.5
20260503182916 62 196 2.6 6.1 0.00 0.00 0.00 53 1021.5
20260503182907 63 233 2.6 7.0 0.00 0.00 0.00 49 1021.4
20260503182643 62 136 1.7 6.1 0.00 0.00 0.00 47 1021.5
20260503182608 62 109 1.7 5.2 0.00 0.00 0.00 48 1021.5
20260503182600 62 132 1.7 6.1 0.00 0.00 0.00 48 1021.4
20260503182339 62 188 1.7 5.2 0.00 0.00 0.00 50 1021.5
20260503182239 62 201 1.7 5.2 0.00 0.00 0.00 49 1021.5
20260503182212 61 0 2.6 5.2 0.00 0.00 0.00 52 1021.5
20260503182201 62 0 1.7 5.2 0.00 0.00 0.00 54 1021.4
20260503182137 61 209 1.7 5.2 0.00 0.00 0.00 47 1021.4
20260503182026 61 0 2.6 5.2 0.00 0.00 0.00 52 1021.5
20260503182007 61 0 1.7 5.2 0.00 0.00 0.00 53 1021.5
20260503181629 61 0 2.6 5.2 0.00 0.00 0.00 46 1021.5
20260503181528 61 0 2.6 9.6 0.00 0.00 0.00 48 1021.5
20260503181433 61 0 4.3 9.6 0.00 0.00 0.00 48 1021.5
20260503181423 61 0 4.3 9.6 0.00 0.00 0.00 48 1021.5
20260503181417 62 0 4.3 9.6 0.00 0.00 0.00 52 1021.6
20260503181359 61 0 4.3 9.6 0.00 0.00 0.00 49 1021.6
20260503181234 61 0 4.3 9.6 0.00 0.00 0.00 53 1021.5
20260503181220 61 0 4.3 9.6 0.00 0.00 0.00 54 1021.5
20260503180938 61 0 4.3 9.6 0.00 0.00 0.00 49 1021.5
20260503180717 61 0 4.3 9.6 0.00 0.00 0.00 51 1021.5
20260503180617 61 250 4.3 9.6 0.00 0.00 0.00 50 1021.5
20260503180516 62 254 3.5 8.7 0.00 0.00 0.00 51 1021.5
20260503180405 62 248 3.5 8.7 0.00 0.00 0.00 53 1021.6
20260503180305 62 281 3.5 7.0 0.00 0.00 0.00 57 1021.6
20260503180207 61 187 3.5 7.0 0.00 0.00 0.00 55 1021.6
20260503180117 61 254 2.6 7.0 0.00 0.00 0.00 48 1021.6
20260503180107 61 238 2.6 7.0 0.00 0.00 0.00 50 1021.6
20260503180100 61 246 2.6 7.0 0.00 0.00 0.00 55 1021.6
20260503180042 61 271 2.6 7.0 0.00 0.00 0.00 49 1021.6
20260503175735 61 260 1.7 6.1 0.00 0.00 0.00 47 1021.7
20260503175723 61 241 1.7 7.0 0.00 0.00 0.00 53 1021.6
20260503175500 61 257 1.7 6.1 0.00 0.00 0.00 53 1021.7
20260503175355 62 238 1.7 5.2 0.00 0.00 0.00 53 1021.6
20260503175255 61 344 1.7 4.3 0.00 0.00 0.00 55 1021.7
20260503175154 61 200 1.7 4.3 0.00 0.00 0.00 54 1021.7
20260503175053 60 204 1.7 4.3 0.00 0.00 0.00 51 1021.7
20260503174954 60 140 1.7 4.3 0.00 0.00 0.00 55 1021.7
20260503174848 60 148 1.7 4.3 0.00 0.00 0.00 54 1021.7
20260503174749 60 134 1.7 4.3 0.00 0.00 0.00 46 1021.7
20260503174647 60 130 1.7 6.1 0.00 0.00 0.00 48 1021.8
20260503174546 60 134 1.7 7.0 0.00 0.00 0.00 45 1021.8
20260503174444 60 75 2.6 7.0 0.00 0.00 0.00 46 1021.8
20260503174407 61 250 2.6 7.0 0.00 0.00 0.00 48 1021.8
20260503174357 61 95 1.7 7.0 0.00 0.00 0.00 49 1021.8
20260503174139 61 252 2.6 7.0 0.00 0.00 0.00 46 1021.8
20260503174037 61 250 2.6 7.0 0.00 0.00 0.00 51 1021.9
20260503173938 61 238 2.6 7.0 0.00 0.00 0.00 52 1021.8
20260503173834 61 237 2.6 7.0 0.00 0.00 0.00 49 1021.8
20260503173732 61 278 1.7 7.0 0.00 0.00 0.00 46 1021.8
20260503173702 61 185 1.7 5.2 0.00 0.00 0.00 54 1021.9
20260503173653 61 275 1.7 7.0 0.00 0.00 0.00 46 1021.9
20260503173432 61 184 1.7 5.2 0.00 0.00 0.00 48 1021.8
20260503173321 61 198 1.7 5.2 0.00 0.00 0.00 48 1021.8
20260503173236 60 149 1.7 6.1 0.00 0.00 0.00 50 1021.9
20260503173225 61 167 1.7 5.2 0.00 0.00 0.00 49 1021.9
20260503173205 61 184 1.7 5.2 0.00 0.00 0.00 55 1021.9
20260503173044 60 266 1.7 6.1 0.00 0.00 0.00 56 1021.9
20260503172852 59 130 2.6 6.1 0.00 0.00 0.00 50 1022.0
20260503172847 59 123 2.6 6.1 0.00 0.00 0.00 46 1021.9
20260503172837 59 121 2.6 6.1 0.00 0.00 0.00 52 1021.9
20260503172816 59 121 2.6 6.1 0.00 0.00 0.00 50 1022.0
20260503172653 59 121 2.6 6.1 0.00 0.00 0.00 46 1021.9
20260503172313 60 240 2.6 6.1 0.00 0.00 0.00 47 1022.0
20260503172213 60 238 2.6 6.1 0.00 0.00 0.00 49 1022.0
20260503172111 60 206 2.6 6.1 0.00 0.00 0.00 52 1022.1
20260503172013 60 234 2.6 6.1 0.00 0.00 0.00 47 1022.0
20260503171910 60 300 2.6 6.1 0.00 0.00 0.00 47 1022.1
20260503171801 60 269 2.6 6.1 0.00 0.00 0.00 55 1022.1
20260503171702 60 317 1.7 5.2 0.00 0.00 0.00 54 1022.2
20260503171601 59 242 1.7 5.2 0.00 0.00 0.00 52 1022.1
20260503171502 59 109 1.7 5.2 0.00 0.00 0.00 52 1022.2
20260503171400 59 108 2.6 5.2 0.00 0.00 0.00 49 1022.1
20260503171257 59 0 2.6 5.2 0.00 0.00 0.00 49 1022.0
20260503171153 60 111 2.6 7.0 0.00 0.00 0.00 51 1022.1
20260503171055 60 98 1.7 7.0 0.00 0.00 0.00 51 1022.1
20260503170953 59 80 1.7 7.0 0.00 0.00 0.00 50 1022.1
20260503170855 59 273 1.7 7.0 0.00 0.00 0.00 49 1022.1
20260503170755 59 267 1.7 7.0 0.00 0.00 0.00 52 1022.1
20260503170653 60 261 2.6 7.0 0.00 0.00 0.00 54 1022.1
20260503170623 60 264 2.6 7.0 0.00 0.00 0.00 51 1022.1
20260503170612 60 256 2.6 7.0 0.00 0.00 0.00 51 1022.2
20260503170348 60 251 1.7 7.0 0.00 0.00 0.00 50 1022.2
20260503170309 60 244 1.7 6.1 0.00 0.00 0.00 53 1022.2
20260503170258 60 0 2.6 7.0 0.00 0.00 0.00 52 1022.3
20260503160116 55 92 1.7 6.1 0.00 0.00 0.00 52 1022.9
20260503150945 55 64 2.6 7.0 0.00 0.00 0.00 59 1023.2
20260503150843 55 96 1.7 5.2 0.00 0.00 0.00 57 1023.1
20260503150743 55 94 1.7 3.5 0.00 0.00 0.00 56 1023.2
20260503150658 55 112 1.7 3.5 0.00 0.00 0.00 57 1023.2
20260503150646 55 94 2.6 3.5 0.00 0.00 0.00 58 1023.1
20260503150641 55 112 1.7 3.5 0.00 0.00 0.00 56 1023.2
20260503150622 55 101 1.7 3.5 0.00 0.00 0.00 57 1023.2
20260503150244 55 77 1.7 3.5 0.00 0.00 0.00 55 1023.2
20260503150144 55 57 1.7 3.5 0.00 0.00 0.00 56 1023.2
20260503140235 51 86 1.7 6.1 0.00 0.00 0.00 82 1023.0
20260503140135 51 86 1.7 6.1 0.00 0.00 0.00 82 1023.0
20260503131410 48 178 0.9 3.5 0.00 0.00 0.00 95 1022.8
20260503131306 48 181 0.9 4.3 0.00 0.00 0.00 95 1022.9
20260503131155 48 179 0.9 4.3 0.00 0.00 0.00 95 1022.9
20260503131055 48 180 1.7 4.3 0.00 0.00 0.00 95 1022.9
20260503130956 48 0 1.7 4.3 0.00 0.00 0.00 95 1023.0
20260503130854 48 173 1.7 4.3 0.00 0.00 0.00 95 1022.9
20260503130756 48 173 1.7 4.3 0.00 0.00 0.00 95 1022.9
20260503130656 47 175 1.7 4.3 0.00 0.00 0.00 95 1022.9
20260503130553 47 174 0.9 4.3 0.00 0.00 0.00 95 1022.9
20260503130454 47 173 0.9 4.3 0.00 0.00 0.00 95 1022.9
20260503130352 47 173 0.9 4.3 0.00 0.00 0.00 96 1022.9
20260503130251 48 177 0.9 2.6 0.00 0.00 0.00 96 1022.9
20260503130244 47 202 0.9 2.6 0.00 0.00 0.00 96 1023.0
20260503130240 47 219 0.0 2.6 0.00 0.00 0.00 96 1022.9
20260503130221 47 175 0.9 2.6 0.00 0.00 0.00 96 1023.0
20260503120216 40 0 0.0 0.0 0.00 0.00 0.00 96 1022.7
20260503120113 40 0 0.0 0.0 0.00 0.00 0.00 96 1022.7
20260503110752 37 275 0.0 0.0 0.00 0.00 0.00 95 1021.9
20260503110650 37 275 0.0 0.0 0.00 0.00 0.00 95 1021.9
20260503110550 37 275 0.0 0.0 0.00 0.00 0.00 95 1021.9
20260503110452 37 275 0.0 0.0 0.00 0.00 0.00 95 1021.9
20260503110352 37 275 0.0 0.0 0.00 0.00 0.00 95 1021.9
20260503110249 37 275 0.0 0.0 0.00 0.00 0.00 95 1021.9
20260503110148 37 275 0.0 0.0 0.00 0.00 0.00 95 1021.8
20260503100242 39 275 0.0 0.9 0.00 0.00 0.00 95 1021.4
20260503100141 39 275 0.0 0.9 0.00 0.00 0.00 95 1021.3
20260503090314 40 276 0.0 1.7 0.00 0.00 0.00 95 1021.3
20260503090307 40 276 0.0 1.7 0.00 0.00 0.00 95 1021.3
20260503090302 40 276 0.0 1.7 0.00 0.00 0.00 95 1021.3
20260503090245 40 276 0.0 1.7 0.00 0.00 0.00 95 1021.2
20260503081533 39 315 0.0 0.0 0.00 0.00 0.00 95 1021.1
20260503081432 39 315 0.0 0.0 0.00 0.00 0.00 95 1021.1
20260503081330 39 315 0.0 0.0 0.00 0.00 0.00 95 1021.0
20260503081230 39 315 0.0 0.0 0.00 0.00 0.00 95 1021.1
20260503081223 39 315 0.0 0.0 0.00 0.00 0.00 95 1021.0
20260503081217 39 315 0.0 0.0 0.00 0.00 0.00 95 1021.1
20260503081202 39 315 0.0 0.0 0.00 0.00 0.00 95 1021.1
20260503080826 39 315 0.0 0.0 0.00 0.00 0.00 94 1021.1
20260503080728 39 315 0.0 0.0 0.00 0.00 0.00 94 1021.0
20260503080626 39 315 0.0 0.0 0.00 0.00 0.00 94 1021.1
20260503080528 39 315 0.0 0.0 0.00 0.00 0.00 94 1021.0
20260503080422 39 315 0.0 0.0 0.00 0.00 0.00 94 1020.9
20260503080320 39 315 0.0 0.0 0.00 0.00 0.00 94 1021.0
20260503080220 39 315 0.0 0.0 0.00 0.00 0.00 94 1021.0
20260503080118 39 315 0.0 0.0 0.00 0.00 0.00 94 1020.9
20260503072909 39 315 0.0 1.7 0.00 0.00 0.00 94 1021.1
20260503072810 39 317 0.0 0.9 0.00 0.00 0.00 94 1021.1
20260503072708 39 317 0.0 0.9 0.00 0.00 0.00 94 1021.1
20260503072610 39 317 0.0 0.9 0.00 0.00 0.00 94 1021.1
20260503072508 38 317 0.0 0.9 0.00 0.00 0.00 94 1021.1
20260503072409 38 317 0.0 0.9 0.00 0.00 0.00 94 1021.2
20260503072309 38 317 0.0 0.9 0.00 0.00 0.00 94 1021.1
20260503072208 38 317 0.0 0.9 0.00 0.00 0.00 94 1021.2
20260503072120 38 317 0.0 0.0 0.00 0.00 0.00 94 1021.2
20260503072109 38 317 0.0 0.9 0.00 0.00 0.00 94 1021.1
20260503072103 38 317 0.0 0.0 0.00 0.00 0.00 94 1021.1
20260503072046 38 317 0.0 0.9 0.00 0.00 0.00 94 1021.2
20260503071708 38 317 0.0 0.0 0.00 0.00 0.00 94 1021.1
20260503071609 39 317 0.0 0.0 0.00 0.00 0.00 94 1021.1
20260503071538 39 317 0.0 0.0 0.00 0.00 0.00 94 1021.0
20260503071528 39 317 0.0 0.0 0.00 0.00 0.00 94 1021.0
20260503071308 39 317 0.0 1.7 0.00 0.00 0.00 94 1021.0
20260503071210 39 317 0.0 1.7 0.00 0.00 0.00 94 1020.9
20260503071108 39 317 0.0 1.7 0.00 0.00 0.00 94 1021.0
20260503071009 39 317 0.0 1.7 0.00 0.00 0.00 94 1020.9
20260503070908 39 317 0.9 1.7 0.00 0.00 0.00 94 1020.9
20260503070809 39 317 0.9 1.7 0.00 0.00 0.00 94 1020.9
20260503070707 39 317 0.9 1.7 0.00 0.00 0.00 94 1021.0
20260503070608 39 317 0.9 1.7 0.00 0.00 0.00 94 1021.0
20260503070508 39 317 0.9 1.7 0.00 0.00 0.00 94 1021.0
20260503070410 39 317 0.9 1.7 0.00 0.00 0.00 94 1021.0
20260503070308 39 317 0.9 1.7 0.00 0.00 0.00 94 1021.0
20260503070209 39 317 0.9 1.7 0.00 0.00 0.00 94 1021.0
20260503070135 39 317 0.9 1.7 0.00 0.00 0.00 93 1021.0
20260503070126 39 317 0.9 1.7 0.00 0.00 0.00 94 1021.0
20260503060333 40 317 0.0 0.0 0.00 0.00 0.00 93 1020.8
20260503060231 40 317 0.0 0.0 0.00 0.00 0.00 93 1020.8
20260503060123 40 317 0.0 0.0 0.00 0.00 0.00 93 1020.8
20260503055122 40 317 0.0 0.0 0.00 0.00 0.00 93 1020.8
20260503055023 40 317 0.0 0.0 0.00 0.00 0.00 93 1020.8
20260503054923 40 317 0.0 0.0 0.00 0.00 0.00 93 1020.8
20260503054917 41 317 0.0 0.0 0.00 0.00 0.00 93 1020.9
20260503054912 40 317 0.0 0.0 0.00 0.00 0.00 93 1020.8
20260503054855 40 317 0.0 0.0 0.00 0.00 0.00 93 1020.7
20260503054718 41 317 0.0 0.0 0.00 0.00 0.00 93 1020.8
20260503054555 41 317 0.0 0.0 0.00 0.00 0.00 93 1020.8
20260503054434 41 317 0.0 0.0 0.00 0.00 0.00 93 1020.9
20260503054415 41 317 0.0 0.0 0.00 0.00 0.00 93 1020.9
20260503054304 41 317 0.0 0.0 0.00 0.00 0.00 93 1021.0
20260503054247 41 317 0.0 0.0 0.00 0.00 0.00 93 1020.9
20260503054127 41 317 0.0 0.0 0.00 0.00 0.00 93 1020.9
20260503054107 41 317 0.0 0.0 0.00 0.00 0.00 93 1021.0
20260503053831 41 317 0.0 0.0 0.00 0.00 0.00 93 1021.0
20260503053610 41 317 0.0 0.0 0.00 0.00 0.00 93 1021.0
20260503053508 41 317 0.0 0.0 0.00 0.00 0.00 93 1021.0
20260503053405 41 317 0.0 0.0 0.00 0.00 0.00 93 1021.0
20260503053303 41 317 0.0 0.0 0.00 0.00 0.00 93 1020.9
20260503053249 41 317 0.0 0.9 0.00 0.00 0.00 93 1020.9
20260503053243 41 317 0.0 0.9 0.00 0.00 0.00 93 1020.9
20260503053239 41 317 0.0 0.0 0.00 0.00 0.00 93 1021.0
20260503053234 41 317 0.0 0.9 0.00 0.00 0.00 92 1020.9
20260503053224 41 317 0.0 0.0 0.00 0.00 0.00 93 1020.9
20260503053204 41 317 0.0 0.0 0.00 0.00 0.00 93 1020.9
20260503053043 41 317 0.0 0.0 0.00 0.00 0.00 93 1020.9
20260503053028 41 317 0.0 0.0 0.00 0.00 0.00 93 1020.9
20260503052512 41 317 0.0 0.9 0.00 0.00 0.00 93 1020.9
20260503052250 41 317 0.0 0.9 0.00 0.00 0.00 93 1020.9
20260503052150 41 317 0.0 0.9 0.00 0.00 0.00 93 1020.9
20260503052049 41 317 0.0 0.9 0.00 0.00 0.00 92 1020.9
20260503052040 41 317 0.0 0.9 0.00 0.00 0.00 92 1020.9
20260503052035 41 317 0.0 0.9 0.00 0.00 0.00 92 1020.8
20260503052018 41 317 0.0 0.9 0.00 0.00 0.00 92 1020.9
20260503051643 41 317 0.0 0.0 0.00 0.00 0.00 92 1020.8
20260503051542 41 317 0.0 0.0 0.00 0.00 0.00 92 1020.8
20260503051508 41 317 0.0 0.9 0.00 0.00 0.00 92 1020.8
20260503051459 41 317 0.0 0.9 0.00 0.00 0.00 92 1020.8
20260503051236 41 317 0.0 0.9 0.00 0.00 0.00 92 1020.9
20260503051138 41 317 0.0 0.9 0.00 0.00 0.00 92 1020.8
20260503051034 41 317 0.0 0.9 0.00 0.00 0.00 92 1020.9
20260503050935 41 317 0.0 0.9 0.00 0.00 0.00 92 1020.9
20260503050903 41 317 0.0 0.9 0.00 0.00 0.00 92 1020.8
20260503050853 41 317 0.0 0.9 0.00 0.00 0.00 92 1020.8
20260503050634 41 317 0.0 0.9 0.00 0.00 0.00 92 1020.8
20260503050532 41 317 0.0 0.9 0.00 0.00 0.00 92 1020.8
20260503050432 41 317 0.0 0.0 0.00 0.00 0.00 92 1020.8
20260503050332 42 317 0.0 0.0 0.00 0.00 0.00 92 1020.8
20260503050328 42 317 0.0 0.9 0.00 0.00 0.00 92 1020.7
20260503050309 42 317 0.0 0.9 0.00 0.00 0.00 92 1020.8
20260503050149 42 317 0.0 0.9 0.00 0.00 0.00 92 1020.8
20260503045929 42 317 0.0 0.9 0.00 0.00 0.00 92 1020.7
20260503045827 42 317 0.0 0.9 0.00 0.00 0.00 92 1020.7
20260503045729 42 317 0.0 0.9 0.00 0.00 0.00 92 1020.7
20260503045652 42 317 0.0 0.9 0.00 0.00 0.00 92 1020.7
20260503045643 42 317 0.0 0.9 0.00 0.00 0.00 92 1020.7
20260503045424 42 317 0.0 0.9 0.00 0.00 0.00 92 1020.7
20260503045323 42 317 0.0 0.9 0.00 0.00 0.00 92 1020.6
20260503045223 42 317 0.0 0.9 0.00 0.00 0.00 92 1020.6
20260503045125 42 317 0.0 0.0 0.00 0.00 0.00 92 1020.7
20260503045121 42 317 0.0 0.0 0.00 0.00 0.00 92 1020.6
20260503045114 42 317 0.0 0.0 0.00 0.00 0.00 92 1020.6
20260503045059 42 317 0.0 0.0 0.00 0.00 0.00 92 1020.4
20260503044724 42 317 0.0 0.0 0.00 0.00 0.00 92 1020.6
20260503044625 42 317 0.0 0.0 0.00 0.00 0.00 92 1020.6
20260503044523 42 317 0.0 0.0 0.00 0.00 0.00 92 1020.6
20260503044423 42 317 0.0 0.0 0.00 0.00 0.00 92 1020.4
20260503044323 42 317 0.0 0.0 0.00 0.00 0.00 92 1020.3
20260503044253 42 317 0.0 0.0 0.00 0.00 0.00 92 1020.4
20260503044242 42 317 0.0 0.0 0.00 0.00 0.00 92 1020.4
20260503044024 42 317 0.0 0.0 0.00 0.00 0.00 92 1020.3
20260503043953 42 317 0.0 0.9 0.00 0.00 0.00 92 1020.4
20260503043944 42 317 0.0 0.0 0.00 0.00 0.00 92 1020.3
20260503043717 42 317 0.0 0.9 0.00 0.00 0.00 92 1020.3
20260503043613 42 317 0.9 1.7 0.00 0.00 0.00 91 1020.4
20260503043512 42 317 0.9 1.7 0.00 0.00 0.00 91 1020.3
20260503043435 42 317 0.9 1.7 0.00 0.00 0.00 91 1020.3
20260503043427 42 317 0.9 1.7 0.00 0.00 0.00 91 1020.3
20260503043208 42 317 0.9 1.7 0.00 0.00 0.00 91 1020.3
20260503043134 42 317 0.9 1.7 0.00 0.00 0.00 92 1020.3
20260503043126 42 317 0.9 1.7 0.00 0.00 0.00 92 1020.3
20260503042901 42 317 0.9 1.7 0.00 0.00 0.00 92 1020.3
20260503042759 42 317 0.9 1.7 0.00 0.00 0.00 92 1020.3
20260503042659 43 317 0.9 1.7 0.00 0.00 0.00 91 1020.3
20260503042558 43 317 0.0 1.7 0.00 0.00 0.00 91 1020.2
20260503042456 43 317 0.0 0.9 0.00 0.00 0.00 91 1020.3
20260503042449 43 317 0.0 0.9 0.00 0.00 0.00 91 1020.2
20260503042443 43 317 0.0 0.0 0.00 0.00 0.00 91 1020.3
20260503042428 43 317 0.0 0.9 0.00 0.00 0.00 91 1020.2
20260503042120 43 317 0.0 0.0 0.00 0.00 0.00 91 1020.3
20260503042111 43 317 0.0 0.0 0.00 0.00 0.00 91 1020.3